• In India
  • List of Countries
  • For 7 days
  • Water Temperature
  • Satellite Maps
  • Weather Map
  • Weather Widgets
  • user-avatar
    Login

    Hourly Weather Armawir

    Today, 22 October, Monday

    Time Temperature Precipitation Wind Pressure Humidity
    00:00 +16°C° 0.3 mm 1 mps 687 mmHg 62%
    01:00 +16°C° 0.3 mm 1 mps 687 mmHg 63%
    02:00 +16°C° 0.3 mm 1 mps 687 mmHg 63%
    03:00 +16°C° 0 mm 1 mps 686 mmHg 62%
    04:00 +16°C° 0.4 mm 1 mps 687 mmHg 64%
    05:00 +15°C° 0.4 mm 1 mps 687 mmHg 65%
    06:00 +15°C° 0.4 mm 1 mps 687 mmHg 67%
    07:00 +16°C° 0.3 mm 2 mps 687 mmHg 65%
    08:00 +17°C° 0.3 mm 2 mps 688 mmHg 62%
    09:00 +17°C° 0.3 mm 2 mps 688 mmHg 60%
    10:00 +18°C° 0.1 mm 2 mps 688 mmHg 56%
    11:00 +19°C° 0.1 mm 3 mps 688 mmHg 53%
    12:00 +20°C° 0.1 mm 3 mps 688 mmHg 49%
    13:00 +21°C° 0.1 mm 3 mps 688 mmHg 48%
    14:00 +21°C° 0.1 mm 3 mps 688 mmHg 47%
    15:00 +21°C° 0.1 mm 3 mps 688 mmHg 45%
    16:00 +20°C° 0.1 mm 3 mps 688 mmHg 50%
    17:00 +18°C° 0.1 mm 2 mps 688 mmHg 54%
    18:00 +17°C° 0.1 mm 2 mps 688 mmHg 59%
    19:00 +17°C° 0.1 mm 2 mps 688 mmHg 60%
    20:00 +16°C° 0.1 mm 1 mps 688 mmHg 61%
    21:00 +16°C° 0.1 mm 1 mps 688 mmHg 62%
    22:00 +15°C° 0 mm 1 mps 688 mmHg 63%
    23:00 +15°C° 0 mm 1 mps 688 mmHg 65%

    Tomorrow, 23 October, Tuesday

    Time Temperature Precipitation Wind Pressure Humidity
    00:00 +15°C° 0 mm 1 mps 688 mmHg 66%
    01:00 +14°C° 0 mm 1 mps 688 mmHg 67%
    02:00 +14°C° 0 mm 1 mps 688 mmHg 69%
    03:00 +14°C° 0 mm 1 mps 688 mmHg 70%
    04:00 +13°C° 0 mm 1 mps 688 mmHg 71%
    05:00 +13°C° 0 mm 1 mps 688 mmHg 72%
    06:00 +13°C° 0 mm 1 mps 688 mmHg 72%
    07:00 +15°C° 0 mm 1 mps 688 mmHg 66%
    08:00 +16°C° 0 mm 1 mps 688 mmHg 60%
    09:00 +18°C° 0 mm 2 mps 689 mmHg 54%
    10:00 +19°C° 0 mm 2 mps 688 mmHg 50%
    11:00 +20°C° 0 mm 2 mps 688 mmHg 46%
    12:00 +21°C° 0 mm 3 mps 688 mmHg 42%
    13:00 +21°C° 0.1 mm 3 mps 688 mmHg 42%
    14:00 +21°C° 0.1 mm 3 mps 687 mmHg 41%
    15:00 +21°C° 0.1 mm 3 mps 687 mmHg 41%
    16:00 +20°C° 0.1 mm 3 mps 687 mmHg 45%
    17:00 +19°C° 0.1 mm 3 mps 686 mmHg 49%
    18:00 +17°C° 0.1 mm 2 mps 686 mmHg 53%
    19:00 +17°C° 0 mm 2 mps 686 mmHg 55%
    20:00 +16°C° 0 mm 2 mps 686 mmHg 56%
    21:00 +16°C° 0 mm 2 mps 687 mmHg 58%
    22:00 +16°C° 0.1 mm 2 mps 686 mmHg 59%
    23:00 +15°C° 0.1 mm 2 mps 686 mmHg 60%

    Day after tomorrow, 24 October, Wednesday

    Time Temperature Precipitation Wind Pressure Humidity
    00:00 +15°C° 0.1 mm 2 mps 686 mmHg 61%
    01:00 +15°C° 0.2 mm 2 mps 686 mmHg 63%
    02:00 +15°C° 0.2 mm 2 mps 686 mmHg 65%
    03:00 +15°C° 0.2 mm 2 mps 686 mmHg 67%
    04:00 +14°C° 0.3 mm 2 mps 685 mmHg 70%
    05:00 +14°C° 0.3 mm 2 mps 685 mmHg 72%
    06:00 +14°C° 0.3 mm 2 mps 685 mmHg 74%
    07:00 +15°C° 0.2 mm 2 mps 685 mmHg 69%
    08:00 +16°C° 0.2 mm 3 mps 685 mmHg 65%
    09:00 +17°C° 0.2 mm 3 mps 685 mmHg 61%
    10:00 +18°C° 0.3 mm 3 mps 685 mmHg 58%
    11:00 +19°C° 0.3 mm 4 mps 684 mmHg 55%
    12:00 +20°C° 0.3 mm 4 mps 684 mmHg 51%
    13:00 +20°C° 0.4 mm 4 mps 683 mmHg 52%
    14:00 +20°C° 0.4 mm 4 mps 683 mmHg 52%
    15:00 +20°C° 0.4 mm 5 mps 682 mmHg 53%
    16:00 +19°C° 0.3 mm 4 mps 682 mmHg 57%
    17:00 +18°C° 0.3 mm 4 mps 682 mmHg 61%
    18:00 +17°C° 0.3 mm 3 mps 681 mmHg 64%
    19:00 +17°C° 0.4 mm 3 mps 682 mmHg 66%
    20:00 +16°C° 0.4 mm 3 mps 682 mmHg 68%
    21:00 +16°C° 0.4 mm 3 mps 682 mmHg 69%
    22:00 +16°C° 0.5 mm 3 mps 682 mmHg 71%
    23:00 +16°C° 0.5 mm 3 mps 682 mmHg 73%

    25 October, Thursday

    Time Temperature Precipitation Wind Pressure Humidity
    00:00 +14°C° 0.5 mm 3 mps 681 mmHg 74%
    01:00 +14°C° 0.2 mm 3 mps 681 mmHg 75%
    02:00 +14°C° 0.2 mm 3 mps 681 mmHg 76%
    03:00 +13°C° 0.2 mm 3 mps 681 mmHg 76%
    04:00 +13°C° 0.1 mm 3 mps 680 mmHg 76%
    05:00 +13°C° 0.1 mm 3 mps 680 mmHg 76%
    06:00 +13°C° 0.1 mm 3 mps 680 mmHg 76%
    07:00 +14°C° 0.1 mm 4 mps 680 mmHg 69%
    08:00 +16°C° 0.1 mm 5 mps 680 mmHg 62%
    09:00 +17°C° 0.1 mm 6 mps 680 mmHg 56%
    10:00 +20°C° 0.1 mm 6 mps 679 mmHg 52%
    11:00 +21°C° 0.1 mm 7 mps 678 mmHg 48%
    12:00 +22°C° 0.1 mm 8 mps 678 mmHg 45%
    13:00 +22°C° 0.5 mm 8 mps 677 mmHg 46%
    14:00 +22°C° 0.5 mm 8 mps 676 mmHg 47%
    15:00 +22°C° 0.5 mm 8 mps 675 mmHg 48%
    16:00 +21°C° 0.9 mm 8 mps 675 mmHg 51%
    17:00 +20°C° 0.9 mm 7 mps 675 mmHg 53%
    18:00 +18°C° 0.9 mm 7 mps 675 mmHg 56%
    19:00 +19°C° 0.6 mm 6 mps 676 mmHg 58%
    20:00 +17°C° 0.6 mm 6 mps 676 mmHg 60%
    21:00 +17°C° 0.6 mm 5 mps 676 mmHg 62%
    22:00 +16°C° 0.3 mm 5 mps 677 mmHg 64%
    23:00 +17°C° 0.3 mm 4 mps 677 mmHg 66%

    26 October, Friday

    Time Temperature Precipitation Wind Pressure Humidity
    00:00 +15°C° 0.3 mm 4 mps 677 mmHg 68%
    01:00 +15°C° 0.9 mm 4 mps 677 mmHg 70%
    02:00 +14°C° 0.9 mm 3 mps 677 mmHg 73%
    03:00 +14°C° 0.9 mm 3 mps 677 mmHg 76%
    04:00 +13°C° 2.2 mm 3 mps 677 mmHg 77%
    05:00 +12°C° 2.2 mm 4 mps 677 mmHg 78%
    06:00 +12°C° 2.2 mm 4 mps 677 mmHg 79%
    07:00 +11°C° 0.9 mm 4 mps 678 mmHg 76%
    08:00 +11°C° 0.9 mm 4 mps 678 mmHg 74%
    09:00 +11°C° 0.9 mm 4 mps 679 mmHg 71%
    10:00 +11°C° 0.2 mm 4 mps 679 mmHg 68%
    11:00 +12°C° 0.2 mm 4 mps 679 mmHg 64%
    12:00 +12°C° 0.2 mm 3 mps 679 mmHg 61%
    13:00 +12°C° 0.4 mm 3 mps 680 mmHg 61%
    14:00 +12°C° 0.4 mm 4 mps 680 mmHg 61%
    15:00 +11°C° 0.4 mm 4 mps 680 mmHg 62%
    16:00 +11°C° 0.1 mm 3 mps 682 mmHg 62%
    17:00 +10°C° 0.1 mm 3 mps 683 mmHg 63%
    18:00 +9°C° 0.1 mm 3 mps 684 mmHg 64%
    19:00 +9°C° 0 mm 3 mps 685 mmHg 65%
    20:00 +8°C° 0 mm 2 mps 686 mmHg 66%
    21:00 +7°C° 0 mm 2 mps 687 mmHg 67%
    22:00 +7°C° 0 mm 2 mps 687 mmHg 67%
    23:00 +7°C° 0 mm 2 mps 688 mmHg 67%

    27 October, Saturday

    Time Temperature Precipitation Wind Pressure Humidity
    00:00 +6°C° 0 mm 2 mps 688 mmHg 67%
    01:00 +6°C° 0 mm 2 mps 689 mmHg 67%
    02:00 +6°C° 0 mm 2 mps 689 mmHg 66%
    03:00 +6°C° 0 mm 2 mps 690 mmHg 66%
    04:00 +5°C° 0 mm 2 mps 690 mmHg 65%
    05:00 +5°C° 0 mm 2 mps 691 mmHg 64%
    06:00 +5°C° 0 mm 2 mps 691 mmHg 63%
    07:00 +7°C° 0 mm 1 mps 692 mmHg 59%
    08:00 +9°C° 0 mm 1 mps 692 mmHg 55%
    09:00 +10°C° 0 mm 1 mps 693 mmHg 50%
    10:00 +11°C° 0 mm 1 mps 693 mmHg 47%
    11:00 +12°C° 0 mm 1 mps 693 mmHg 44%
    12:00 +13°C° 0 mm 1 mps 693 mmHg 41%
    13:00 +14°C° 0 mm 1 mps 692 mmHg 40%
    14:00 +14°C° 0 mm 1 mps 692 mmHg 40%
    15:00 +14°C° 0 mm 1 mps 692 mmHg 39%
    16:00 +13°C° 0 mm 1 mps 692 mmHg 42%
    17:00 +12°C° 0 mm 1 mps 693 mmHg 45%
    18:00 +11°C° 0 mm 1 mps 693 mmHg 48%
    19:00 +10°C° 0 mm 1 mps 693 mmHg 49%
    20:00 +10°C° 0 mm 1 mps 694 mmHg 49%
    21:00 +10°C° 0 mm 1 mps 694 mmHg 50%
    22:00 +9°C° 0 mm 1 mps 694 mmHg 50%
    23:00 +9°C° 0 mm 1 mps 694 mmHg 51%

    28 October, Sunday

    Time Temperature Precipitation Wind Pressure Humidity
    00:00 +9°C° 0 mm 1 mps 694 mmHg 51%
    01:00 +8°C° 0 mm 0 mps 694 mmHg 52%
    02:00 +7°C° 0 mm 0 mps 694 mmHg 52%
    03:00 +7°C° 0 mm 0 mps 695 mmHg 52%
    04:00 +7°C° 0 mm 0 mps 695 mmHg 52%
    05:00 +7°C° 0 mm 0 mps 695 mmHg 51%
    06:00 +7°C° 0 mm 0 mps 695 mmHg 51%
    07:00 +8°C° 0 mm 0 mps 695 mmHg 47%
    08:00 +11°C° 0 mm 1 mps 695 mmHg 42%
    09:00 +13°C° 0 mm 1 mps 696 mmHg 38%
    10:00 +14°C° 0 mm 1 mps 696 mmHg 36%
    11:00 +16°C° 0 mm 1 mps 695 mmHg 34%
    12:00 +17°C° 0 mm 2 mps 695 mmHg 31%
    13:00 +17°C° 0 mm 2 mps 695 mmHg 30%
    14:00 +18°C° 0 mm 2 mps 695 mmHg 28%
    15:00 +19°C° 0 mm 1 mps 695 mmHg 26%
    16:00 +16°C° 0 mm 1 mps 695 mmHg 29%
    17:00 +15°C° 0 mm 1 mps 694 mmHg 32%
    18:00 +13°C° 0 mm 1 mps 694 mmHg 34%
    19:00 +12°C° 0 mm 1 mps 694 mmHg 35%
    20:00 +12°C° 0 mm 1 mps 695 mmHg 35%
    21:00 +12°C° 0 mm 1 mps 695 mmHg 36%
    22:00 +11°C° 0 mm 1 mps 695 mmHg 36%
    23:00 +11°C° 0 mm 1 mps 694 mmHg 37%
    Show more